Back to Top

Language: 

My Weather Underground Personal Weather Station Historical Data with Graphs...

Delerius Weather Station Historical Data
Daily Summary for August 9, 2017 Units:  Metric    English   Both
« Previous Day
Next Day »
Daily Weekly Monthly Yearly Custom
  High: Low: Average:
Temperature: 18.3 °C 9.6 °C 14.4 °C
Dew Point: 13.1 °C 7.9 °C 10.9 °C
Humidity: 97 % 59 % 81 %
Wind Speed: 19.3 km/h 0 km/h 10.5 km/h
Wind Gust: 38.6 km/h - -
Wind:- - SSW
Pressure: 1023.9 hPa 1013.4 hPa -
Precipitation: 1.78 mm    
Historical Graphs
 
 
Tabular Data for August 9, 2017
Time Temperature Dew Point Pressure Wind Wind Speed Wind Gust Humidity Rainfall Rate (Hourly) solar Conditions
00:01 11.9 °C 11.3 °C 1013.4 hPa NNW 9.7 km/h 19.3 km/h 96 % 1.02 mm 0 W/m2
00:06 11.9 °C 11.3 °C 1013.4 hPa NNW 11.3 km/h 19.3 km/h 96 % 1.02 mm 0 W/m2
00:11 11.9 °C 11.3 °C 1013.4 hPa NNW 9.7 km/h 19.3 km/h 96 % 1.27 mm 0 W/m2
00:16 11.9 °C 11.3 °C 1013.4 hPa NNW 9.7 km/h 20.9 km/h 96 % 1.27 mm 0 W/m2
00:21 11.9 °C 11.3 °C 1013.4 hPa NNW 11.3 km/h 20.9 km/h 96 % 1.02 mm 0 W/m2
00:26 11.9 °C 11.3 °C 1013.4 hPa NW 9.7 km/h 19.3 km/h 96 % 0.76 mm 0 W/m2
00:31 11.8 °C 11.2 °C 1013.4 hPa NW 9.7 km/h 19.3 km/h 96 % 0.76 mm 0 W/m2
00:36 11.8 °C 11.2 °C 1013.4 hPa NW 8 km/h 19.3 km/h 96 % 0.51 mm 0 W/m2
00:41 11.8 °C 11.2 °C 1013.4 hPa NW 8 km/h 19.3 km/h 96 % 0.51 mm 0 W/m2
00:46 11.8 °C 11.2 °C 1013.4 hPa NW 6.4 km/h 14.5 km/h 96 % 0.51 mm 0 W/m2
00:51 11.8 °C 11.2 °C 1013.4 hPa NW 6.4 km/h 20.9 km/h 96 % 0.25 mm 0 W/m2
00:56 11.7 °C 11.1 °C 1013.4 hPa NW 8 km/h 20.9 km/h 96 % 0.25 mm 0 W/m2
01:01 11.7 °C 11.1 °C 1013.4 hPa NW 8 km/h 16.1 km/h 96 % 0.25 mm 0 W/m2
01:06 11.7 °C 11.1 °C 1013.4 hPa NW 8 km/h 16.1 km/h 96 % 0.25 mm 0 W/m2
01:11 11.7 °C 11.1 °C 1013.4 hPa NW 8 km/h 19.3 km/h 96 % 0 mm 0 W/m2
01:16 11.7 °C 11.1 °C 1013.4 hPa NW 8 km/h 19.3 km/h 96 % 0 mm 0 W/m2
01:21 11.7 °C 11.1 °C 1013.4 hPa NW 6.4 km/h 14.5 km/h 96 % 0 mm 0 W/m2
01:26 11.7 °C 11.1 °C 1013.4 hPa NW 6.4 km/h 14.5 km/h 96 % 0 mm 0 W/m2
01:31 11.7 °C 11.1 °C 1013.4 hPa NW 8 km/h 14.5 km/h 96 % 0.25 mm 0 W/m2
01:36 11.7 °C 11.1 °C 1013.8 hPa NW 9.7 km/h 22.5 km/h 96 % 0.25 mm 0 W/m2
01:41 11.7 °C 11.1 °C 1013.8 hPa NW 9.7 km/h 22.5 km/h 96 % 0.25 mm 0 W/m2
01:46 11.7 °C 11.1 °C 1013.8 hPa NW 11.3 km/h 19.3 km/h 96 % 0.25 mm 0 W/m2
01:51 11.8 °C 11.2 °C 1013.8 hPa NW 9.7 km/h 19.3 km/h 96 % 0.25 mm 0 W/m2
01:56 11.8 °C 11.2 °C 1013.8 hPa NNW 8 km/h 19.3 km/h 96 % 0.25 mm 0 W/m2
02:01 11.8 °C 11.2 °C 1013.8 hPa NW 9.7 km/h 19.3 km/h 96 % 0.25 mm 0 W/m2
02:06 11.8 °C 11.2 °C 1013.8 hPa NW 9.7 km/h 19.3 km/h 96 % 0.51 mm 0 W/m2
02:11 11.8 °C 11.2 °C 1013.8 hPa NW 9.7 km/h 19.3 km/h 96 % 0.51 mm 0 W/m2
02:16 11.8 °C 11.2 °C 1013.8 hPa NW 9.7 km/h 16.1 km/h 96 % 0.51 mm 0 W/m2
02:21 11.8 °C 11.2 °C 1013.8 hPa NW 8 km/h 16.1 km/h 96 % 0.51 mm 0 W/m2
02:26 11.8 °C 11.2 °C 1013.8 hPa NW 8 km/h 16.1 km/h 96 % 0.51 mm 0 W/m2
02:31 11.8 °C 11.2 °C 1013.8 hPa NW 8 km/h 20.9 km/h 96 % 0.51 mm 0 W/m2
02:36 11.8 °C 11.2 °C 1013.8 hPa NW 9.7 km/h 20.9 km/h 96 % 0.51 mm 0 W/m2
02:41 11.8 °C 11.2 °C 1013.8 hPa NW 8 km/h 19.3 km/h 96 % 0.51 mm 0 W/m2
02:46 11.8 °C 11.2 °C 1013.8 hPa NW 9.7 km/h 19.3 km/h 96 % 0.51 mm 0 W/m2
02:51 11.8 °C 11.2 °C 1013.4 hPa NW 9.7 km/h 16.1 km/h 96 % 0.51 mm 0 W/m2
02:56 11.8 °C 11.2 °C 1013.8 hPa NW 9.7 km/h 16.1 km/h 96 % 0.51 mm 0 W/m2
03:01 11.9 °C 11.3 °C 1013.8 hPa NW 9.7 km/h 20.9 km/h 96 % 0.25 mm 0 W/m2
03:06 11.9 °C 11.3 °C 1013.8 hPa NW 9.7 km/h 20.9 km/h 96 % 0.25 mm 0 W/m2
03:11 11.9 °C 11.3 °C 1013.8 hPa NW 9.7 km/h 20.9 km/h 96 % 0.51 mm 0 W/m2
03:16 11.9 °C 11.3 °C 1013.8 hPa NW 9.7 km/h 20.9 km/h 96 % 0.51 mm 0 W/m2
03:21 12 °C 11.4 °C 1013.8 hPa NW 9.7 km/h 19.3 km/h 96 % 0.51 mm 0 W/m2
03:26 12 °C 11.4 °C 1013.8 hPa NW 9.7 km/h 19.3 km/h 96 % 0.25 mm 0 W/m2
03:31 12 °C 11.4 °C 1013.8 hPa NW 11.3 km/h 20.9 km/h 96 % 0.25 mm 0 W/m2
03:36 12 °C 11.4 °C 1013.8 hPa NW 11.3 km/h 20.9 km/h 96 % 0.25 mm 0 W/m2
03:41 12.1 °C 11.5 °C 1013.8 hPa NW 9.7 km/h 17.7 km/h 96 % 0.51 mm 0 W/m2
03:46 12.1 °C 11.5 °C 1013.8 hPa NW 9.7 km/h 16.1 km/h 96 % 0.51 mm 0 W/m2
03:51 12.1 °C 11.5 °C 1013.8 hPa NW 9.7 km/h 19.3 km/h 96 % 0.51 mm 0 W/m2
03:56 12.1 °C 11.6 °C 1013.8 hPa NW 11.3 km/h 20.9 km/h 97 % 0.51 mm 0 W/m2
04:01 12.1 °C 11.6 °C 1013.8 hPa NW 11.3 km/h 20.9 km/h 97 % 0.51 mm 0 W/m2
04:06 12.1 °C 11.6 °C 1013.8 hPa NW 11.3 km/h 19.3 km/h 97 % 0.51 mm 0 W/m2
04:11 12.1 °C 11.6 °C 1013.8 hPa NW 11.3 km/h 20.9 km/h 97 % 0.25 mm 0 W/m2
04:16 12.2 °C 11.7 °C 1013.8 hPa NW 11.3 km/h 20.9 km/h 97 % 0.25 mm 0 W/m2
04:20 12.2 °C 11.7 °C 1013.8 hPa NW 11.3 km/h 20.9 km/h 97 % 0.25 mm 0 W/m2
04:21 12.2 °C 11.7 °C 1013.4 hPa NW 11.3 km/h 20.9 km/h 97 % 0.25 mm 0 W/m2
04:22 12.2 °C 11.7 °C 1013.4 hPa NW 11.3 km/h 20.9 km/h 97 % 0.25 mm 0 W/m2
04:27 12.2 °C 11.7 °C 1013.8 hPa NW 11.3 km/h 19.3 km/h 97 % 0.51 mm 0 W/m2
04:32 12.2 °C 11.7 °C 1013.8 hPa NW 11.3 km/h 22.5 km/h 97 % 0.51 mm 0 W/m2
04:37 12.3 °C 11.7 °C 1013.8 hPa NW 11.3 km/h 24.1 km/h 96 % 0.51 mm 0 W/m2
04:42 12.3 °C 11.7 °C 1013.8 hPa NW 11.3 km/h 24.1 km/h 96 % 0.25 mm 0 W/m2
04:47 12.3 °C 11.7 °C 1013.8 hPa NW 9.7 km/h 20.9 km/h 96 % 0.51 mm 0 W/m2
04:52 12.3 °C 11.7 °C 1013.8 hPa NW 9.7 km/h 20.9 km/h 96 % 0.51 mm 0 W/m2
04:57 12.3 °C 11.7 °C 1013.8 hPa NNW 8 km/h 16.1 km/h 96 % 0.51 mm 0 W/m2
05:02 12.4 °C 11.8 °C 1013.8 hPa NW 8 km/h 19.3 km/h 96 % 0.51 mm 0 W/m2
05:07 12.4 °C 11.9 °C 1013.8 hPa NW 9.7 km/h 22.5 km/h 97 % 0.51 mm 0 W/m2
05:12 12.5 °C 12.1 °C 1014.1 hPa NW 11.3 km/h 22.5 km/h 97 % 0.51 mm 0 W/m2
05:17 12.5 °C 12.1 °C 1014.1 hPa NNW 11.3 km/h 20.9 km/h 97 % 0.51 mm 0 W/m2
05:22 12.6 °C 12.1 °C 1014.1 hPa NNW 11.3 km/h 22.5 km/h 97 % 0.51 mm 0 W/m2
05:27 12.6 °C 12 °C 1014.1 hPa NNW 9.7 km/h 22.5 km/h 96 % 0.25 mm 0 W/m2
05:32 12.6 °C 12 °C 1014.1 hPa NNW 9.7 km/h 22.5 km/h 96 % 0.25 mm 0 W/m2
05:37 12.7 °C 12.1 °C 1014.1 hPa NNW 11.3 km/h 22.5 km/h 96 % 0.25 mm 0 W/m2
05:42 12.7 °C 12.1 °C 1014.1 hPa NNW 8 km/h 17.7 km/h 96 % 0.25 mm 0 W/m2
05:47 12.7 °C 12.1 °C 1014.1 hPa NNW 9.7 km/h 25.7 km/h 96 % 0 mm 0 W/m2
05:52 12.7 °C 12.1 °C 1014.4 hPa NNW 11.3 km/h 25.7 km/h 96 % 0.25 mm 0 W/m2
05:57 12.8 °C 12.3 °C 1014.1 hPa NNW 9.7 km/h 20.9 km/h 97 % 0.25 mm 0 W/m2
06:02 12.8 °C 12.3 °C 1014.4 hPa NNW 8 km/h 20.9 km/h 97 % 0.25 mm 0 W/m2
06:07 12.8 °C 12.3 °C 1014.4 hPa NNW 9.7 km/h 22.5 km/h 97 % 0.25 mm 0 W/m2
06:12 12.8 °C 12.2 °C 1014.4 hPa NNW 11.3 km/h 22.5 km/h 96 % 0.25 mm 0 W/m2
06:17 12.8 °C 12.2 °C 1014.4 hPa NNW 11.3 km/h 22.5 km/h 96 % 0.25 mm 0 W/m2
06:22 12.8 °C 12.2 °C 1014.4 hPa NNW 9.7 km/h 25.7 km/h 96 % 0.25 mm 5 W/m2
06:27 12.9 °C 12.3 °C 1014.4 hPa NNW 8 km/h 25.7 km/h 96 % 0.25 mm 5 W/m2
06:32 12.9 °C 12.3 °C 1014.8 hPa NNW 9.7 km/h 22.5 km/h 96 % 0.25 mm 5 W/m2
06:37 12.9 °C 12.3 °C 1014.8 hPa NNW 12.9 km/h 22.5 km/h 96 % 0.25 mm 7 W/m2
06:42 12.9 °C 12.3 °C 1014.8 hPa NNW 12.9 km/h 24.1 km/h 96 % 0.25 mm 11 W/m2
06:47 12.9 °C 12.3 °C 1014.8 hPa NNW 12.9 km/h 24.1 km/h 96 % 0.25 mm 11 W/m2
06:52 12.9 °C 12.3 °C 1014.8 hPa NNW 11.3 km/h 24.1 km/h 96 % 0 mm 14 W/m2
06:57 13 °C 12.4 °C 1014.8 hPa NNW 11.3 km/h 24.1 km/h 96 % 0 mm 19 W/m2
07:02 13 °C 12.4 °C 1014.8 hPa North 12.9 km/h 24.1 km/h 96 % 0 mm 19 W/m2
07:07 13 °C 12.4 °C 1014.8 hPa NNW 12.9 km/h 24.1 km/h 96 % 0 mm 23 W/m2
07:12 13 °C 12.4 °C 1014.8 hPa NNW 12.9 km/h 24.1 km/h 96 % 0 mm 16 W/m2
07:17 13 °C 12.4 °C 1015.1 hPa NNW 11.3 km/h 22.5 km/h 96 % 0 mm 23 W/m2
07:22 13 °C 12.4 °C 1015.1 hPa NNW 9.7 km/h 22.5 km/h 96 % 0 mm 32 W/m2
07:27 13.1 °C 12.5 °C 1015.1 hPa NNW 9.7 km/h 22.5 km/h 96 % 0 mm 40 W/m2
07:32 13.1 °C 12.5 °C 1015.1 hPa NNW 11.3 km/h 22.5 km/h 96 % 0 mm 44 W/m2
07:37 13.1 °C 12.5 °C 1015.1 hPa NNW 12.9 km/h 25.7 km/h 96 % 0 mm 60 W/m2
07:42 13.1 °C 12.5 °C 1015.1 hPa NNW 12.9 km/h 30.6 km/h 96 % 0 mm 74 W/m2
07:47 13.1 °C 12.3 °C 1015.5 hPa NNW 12.9 km/h 30.6 km/h 95 % 0 mm 102 W/m2
07:52 13.2 °C 12.4 °C 1015.5 hPa NNW 12.9 km/h 25.7 km/h 95 % 0 mm 95 W/m2
07:57 13.2 °C 12.4 °C 1015.5 hPa NNW 12.9 km/h 25.7 km/h 95 % 0 mm 109 W/m2
08:02 13.3 °C 12.5 °C 1015.5 hPa NNW 11.3 km/h 20.9 km/h 95 % 0 mm 100 W/m2
08:07 13.3 °C 12.5 °C 1015.5 hPa NNW 11.3 km/h 30.6 km/h 95 % 0 mm 93 W/m2
08:12 13.3 °C 12.5 °C 1015.5 hPa NNW 11.3 km/h 30.6 km/h 95 % 0 mm 86 W/m2
08:17 13.3 °C 12.5 °C 1015.8 hPa NNW 11.3 km/h 25.7 km/h 95 % 0 mm 65 W/m2
08:22 13.4 °C 12.4 °C 1015.8 hPa NNW 9.7 km/h 25.7 km/h 94 % 0 mm 90 W/m2
08:27 13.4 °C 12.4 °C 1015.8 hPa NNW 11.3 km/h 22.5 km/h 94 % 0 mm 98 W/m2
08:32 13.4 °C 12.4 °C 1015.8 hPa NNW 12.9 km/h 22.5 km/h 94 % 0 mm 83 W/m2
08:37 13.4 °C 12.4 °C 1015.8 hPa NNW 11.3 km/h 24.1 km/h 94 % 0 mm 77 W/m2
08:42 13.4 °C 12.4 °C 1015.8 hPa NNW 12.9 km/h 29 km/h 94 % 0 mm 72 W/m2
08:47 13.5 °C 12.6 °C 1015.8 hPa NNW 11.3 km/h 29 km/h 94 % 0 mm 86 W/m2
08:52 13.5 °C 12.6 °C 1016.1 hPa NNW 11.3 km/h 24.1 km/h 94 % 0 mm 114 W/m2
08:57 13.6 °C 12.5 °C 1016.1 hPa NNW 11.3 km/h 24.1 km/h 93 % 0 mm 141 W/m2
09:02 13.7 °C 12.6 °C 1016.1 hPa NNW 9.7 km/h 19.3 km/h 93 % 0 mm 146 W/m2
09:07 13.7 °C 12.6 °C 1016.1 hPa NNW 11.3 km/h 24.1 km/h 93 % 0 mm 114 W/m2
09:12 13.8 °C 12.7 °C 1016.1 hPa NNW 12.9 km/h 24.1 km/h 93 % 0 mm 121 W/m2
09:17 13.8 °C 12.5 °C 1016.1 hPa NNW 12.9 km/h 29 km/h 92 % 0 mm 91 W/m2
09:22 13.8 °C 12.5 °C 1016.5 hPa NNW 12.9 km/h 29 km/h 92 % 0 mm 91 W/m2
09:27 13.8 °C 12.5 °C 1016.5 hPa NNW 12.9 km/h 30.6 km/h 92 % 0 mm 70 W/m2
09:32 13.7 °C 12.4 °C 1016.5 hPa NNW 12.9 km/h 30.6 km/h 92 % 0 mm 74 W/m2
09:37 13.7 °C 12.4 °C 1016.5 hPa NNW 12.9 km/h 24.1 km/h 92 % 0 mm 83 W/m2
09:42 13.7 °C 12.3 °C 1016.8 hPa NNW 12.9 km/h 22.5 km/h 91 % 0 mm 114 W/m2
09:47 13.8 °C 12.5 °C 1016.8 hPa NNW 11.3 km/h 20.9 km/h 92 % 0 mm 125 W/m2
09:52 13.9 °C 12.4 °C 1016.8 hPa NNW 12.9 km/h 32.2 km/h 91 % 0 mm 134 W/m2
09:57 13.9 °C 12.4 °C 1017.2 hPa NNW 12.9 km/h 32.2 km/h 91 % 0 mm 123 W/m2
10:02 14 °C 12.4 °C 1017.2 hPa North 11.3 km/h 25.7 km/h 90 % 0 mm 141 W/m2
10:07 14 °C 12.4 °C 1017.2 hPa North 12.9 km/h 25.7 km/h 90 % 0 mm 176 W/m2
10:12 14.1 °C 12.3 °C 1017.2 hPa NNW 14.5 km/h 30.6 km/h 89 % 0 mm 169 W/m2
10:17 14.2 °C 12.4 °C 1017.2 hPa NNW 14.5 km/h 30.6 km/h 89 % 0 mm 200 W/m2
10:22 14.3 °C 12.3 °C 1017.2 hPa NNW 12.9 km/h 32.2 km/h 88 % 0 mm 302 W/m2
10:27 14.6 °C 12.6 °C 1017.2 hPa NNW 12.9 km/h 32.2 km/h 88 % 0 mm 450 W/m2
10:32 14.9 °C 12.9 °C 1017.5 hPa NNW 11.3 km/h 22.5 km/h 88 % 0 mm 346 W/m2
10:37 15.2 °C 13.1 °C 1017.5 hPa NNW 9.7 km/h 17.7 km/h 87 % 0 mm 251 W/m2
10:42 15.3 °C 12.8 °C 1017.5 hPa NNW 8 km/h 19.3 km/h 85 % 0 mm 234 W/m2
10:48 15.3 °C 12.6 °C 1017.5 hPa NNW 11.3 km/h 30.6 km/h 84 % 0 mm 281 W/m2
10:53 15.3 °C 12.4 °C 1017.5 hPa NNW 14.5 km/h 32.2 km/h 83 % 0 mm 206 W/m2
10:58 15.2 °C 12.3 °C 1017.5 hPa North 14.5 km/h 32.2 km/h 83 % 0 mm 218 W/m2
11:03 15.2 °C 12.5 °C 1017.5 hPa North 12.9 km/h 29 km/h 84 % 0 mm 232 W/m2
11:08 15.2 °C 12.3 °C 1017.5 hPa North 12.9 km/h 25.7 km/h 83 % 0 mm 290 W/m2
11:13 15.2 °C 12.3 °C 1017.8 hPa NNW 16.1 km/h 32.2 km/h 83 % 0 mm 394 W/m2
11:18 15.4 °C 12.5 °C 1017.5 hPa NNW 14.5 km/h 32.2 km/h 83 % 0 mm 294 W/m2
11:23 15.6 °C 12.3 °C 1017.8 hPa NNW 14.5 km/h 29 km/h 81 % 0 mm 262 W/m2
11:28 15.6 °C 12.3 °C 1017.8 hPa NNW 14.5 km/h 32.2 km/h 81 % 0 mm 301 W/m2
11:33 15.7 °C 12.4 °C 1017.8 hPa North 12.9 km/h 32.2 km/h 81 % 0 mm 299 W/m2
11:38 15.7 °C 12.4 °C 1017.8 hPa North 11.3 km/h 29 km/h 81 % 0 mm 251 W/m2
11:43 15.7 °C 12.4 °C 1017.8 hPa North 12.9 km/h 29 km/h 81 % 0 mm 120 W/m2
11:48 15.6 °C 12.6 °C 1017.8 hPa North 11.3 km/h 29 km/h 82 % 0 mm 134 W/m2
11:53 15.5 °C 12.4 °C 1017.8 hPa North 9.7 km/h 20.9 km/h 82 % 0 mm 330 W/m2
11:58 15.5 °C 12.3 °C 1017.8 hPa North 12.9 km/h 22.5 km/h 81 % 0 mm 346 W/m2
12:03 15.6 °C 12.2 °C 1018.2 hPa North 14.5 km/h 33.8 km/h 80 % 0 mm 374 W/m2
12:08 15.8 °C 12.2 °C 1018.2 hPa North 12.9 km/h 33.8 km/h 79 % 0 mm 413 W/m2
12:13 15.9 °C 11.9 °C 1018.2 hPa North 12.9 km/h 30.6 km/h 77 % 0 mm 420 W/m2
12:19 16.1 °C 11.7 °C 1018.2 hPa North 16.1 km/h 33.8 km/h 75 % 0 mm 596 W/m2
12:24 16.3 °C 11.8 °C 1018.2 hPa North 16.1 km/h 33.8 km/h 75 % 0 mm 450 W/m2
12:29 16.8 °C 11.7 °C 1018.2 hPa North 14.5 km/h 37 km/h 72 % 0 mm 1092 W/m2
12:34 17.1 °C 11.6 °C 1018.2 hPa North 17.7 km/h 37 km/h 70 % 0 mm 373 W/m2
12:39 16.9 °C 11.2 °C 1018.2 hPa North 17.7 km/h 35.4 km/h 69 % 0 mm 494 W/m2
12:44 16.9 °C 11.2 °C 1018.5 hPa NNE 16.1 km/h 32.2 km/h 69 % 0 mm 431 W/m2
12:49 16.8 °C 11.1 °C 1018.2 hPa NNE 14.5 km/h 29 km/h 69 % 0 mm 483 W/m2
12:54 17.1 °C 11.8 °C 1018.5 hPa North 14.5 km/h 32.2 km/h 71 % 0 mm 436 W/m2
12:59 17.2 °C 11.4 °C 1018.5 hPa North 14.5 km/h 32.2 km/h 69 % 0 mm 327 W/m2
13:04 17.1 °C 11.2 °C 1018.5 hPa North 16.1 km/h 29 km/h 68 % 0 mm 239 W/m2
13:09 16.9 °C 10.9 °C 1018.5 hPa NNW 16.1 km/h 30.6 km/h 68 % 0 mm 343 W/m2
13:14 16.6 °C 10.4 °C 1018.5 hPa North 17.7 km/h 38.6 km/h 67 % 0 mm 262 W/m2
13:19 16.6 °C 10.7 °C 1018.5 hPa North 17.7 km/h 38.6 km/h 68 % 0 mm 297 W/m2
13:24 16.7 °C 11 °C 1018.5 hPa North 11.3 km/h 30.6 km/h 69 % 0 mm 401 W/m2
13:29 16.9 °C 11.2 °C 1018.5 hPa North 11.3 km/h 29 km/h 69 % 0 mm 856 W/m2
13:34 17.2 °C 11 °C 1018.8 hPa North 16.1 km/h 30.6 km/h 67 % 0 mm 919 W/m2
13:39 17.4 °C 10.7 °C 1018.5 hPa North 19.3 km/h 33.8 km/h 65 % 0 mm 937 W/m2
13:44 17.7 °C 10.8 °C 1018.8 hPa North 19.3 km/h 33.8 km/h 64 % 0 mm 1088 W/m2
13:49 17.8 °C 11.1 °C 1018.8 hPa North 17.7 km/h 32.2 km/h 65 % 0 mm 348 W/m2
13:54 17.7 °C 11.1 °C 1018.8 hPa North 14.5 km/h 29 km/h 65 % 0 mm 330 W/m2
13:59 17.5 °C 10.8 °C 1018.8 hPa NNE 14.5 km/h 32.2 km/h 65 % 0 mm 322 W/m2
14:04 17.6 °C 11.4 °C 1018.8 hPa North 14.5 km/h 32.2 km/h 67 % 0 mm 420 W/m2
14:09 17.6 °C 11.4 °C 1018.8 hPa North 16.1 km/h 32.2 km/h 67 % 0 mm 316 W/m2
14:14 17.7 °C 11.7 °C 1018.8 hPa North 16.1 km/h 32.2 km/h 68 % 0 mm 919 W/m2
14:19 17.9 °C 11.2 °C 1018.8 hPa North 16.1 km/h 30.6 km/h 65 % 0 mm 928 W/m2
14:24 18 °C 11.3 °C 1018.8 hPa NNE 16.1 km/h 32.2 km/h 65 % 0 mm 951 W/m2
14:29 18 °C 11.1 °C 1019.2 hPa NNE 14.5 km/h 32.2 km/h 64 % 0 mm 197 W/m2
14:34 17.8 °C 10.7 °C 1019.2 hPa North 14.5 km/h 32.2 km/h 63 % 0 mm 380 W/m2
14:39 17.8 °C 10.7 °C 1019.2 hPa North 14.5 km/h 32.2 km/h 63 % 0 mm 248 W/m2
14:44 17.6 °C 10.4 °C 1019.2 hPa NNE 12.9 km/h 25.7 km/h 63 % 0 mm 301 W/m2
14:49 17.7 °C 10.8 °C 1019.2 hPa North 14.5 km/h 25.7 km/h 64 % 0 mm 262 W/m2
14:54 17.6 °C 10.4 °C 1019.2 hPa North 16.1 km/h 33.8 km/h 63 % 0 mm 316 W/m2
14:59 17.7 °C 10.8 °C 1019.2 hPa North 14.5 km/h 37 km/h 64 % 0 mm 316 W/m2
15:04 17.8 °C 10.9 °C 1019.5 hPa NNE 16.1 km/h 37 km/h 64 % 0 mm 369 W/m2
15:09 17.9 °C 11.2 °C 1019.2 hPa North 16.1 km/h 29 km/h 65 % 0 mm 918 W/m2
15:14 18.1 °C 10.4 °C 1019.5 hPa North 14.5 km/h 29 km/h 61 % 0 mm 946 W/m2
15:19 18.3 °C 10.9 °C 1019.5 hPa North 14.5 km/h 30.6 km/h 62 % 0 mm 241 W/m2
15:24 18.1 °C 10.7 °C 1019.5 hPa NNE 14.5 km/h 30.6 km/h 62 % 0 mm 378 W/m2
15:29 17.9 °C 10.3 °C 1019.5 hPa NNE 14.5 km/h 29 km/h 61 % 0 mm 197 W/m2
15:34 17.6 °C 10.2 °C 1019.5 hPa NNE 16.1 km/h 30.6 km/h 62 % 0 mm 243 W/m2
15:39 17.7 °C 10.8 °C 1019.5 hPa NNE 14.5 km/h 30.6 km/h 64 % 0 mm 281 W/m2
15:44 17.7 °C 10.3 °C 1019.5 hPa North 14.5 km/h 32.2 km/h 62 % 0 mm 148 W/m2
15:49 17.6 °C 10.4 °C 1019.5 hPa North 16.1 km/h 32.2 km/h 63 % 0 mm 761 W/m2
15:54 17.7 °C 10.6 °C 1019.5 hPa NNE 16.1 km/h 33.8 km/h 63 % 0 mm 737 W/m2
15:59 17.8 °C 10.7 °C 1019.5 hPa NNE 17.7 km/h 33.8 km/h 63 % 0 mm 671 W/m2
16:04 18.1 °C 10.9 °C 1019.9 hPa NNE 14.5 km/h 25.7 km/h 63 % 0 mm 784 W/m2
16:09 18.3 °C 10.7 °C 1019.5 hPa North 12.9 km/h 30.6 km/h 61 % 0 mm 784 W/m2
16:14 18.3 °C 10.7 °C 1019.9 hPa NNE 14.5 km/h 30.6 km/h 61 % 0 mm 148 W/m2
16:19 18.1 °C 10.7 °C 1019.9 hPa NNE 14.5 km/h 25.7 km/h 62 % 0 mm 199 W/m2
16:24 17.8 °C 10.7 °C 1019.9 hPa NNE 11.3 km/h 24.1 km/h 63 % 0 mm 213 W/m2
16:29 17.7 °C 10.8 °C 1019.9 hPa NNE 11.3 km/h 22.5 km/h 64 % 0 mm 241 W/m2
16:34 17.8 °C 10.7 °C 1019.9 hPa NNE 11.3 km/h 22.5 km/h 63 % 0 mm 165 W/m2
16:39 17.7 °C 10.6 °C 1019.9 hPa NNE 11.3 km/h 25.7 km/h 63 % 0 mm 190 W/m2
16:44 17.7 °C 10.6 °C 1019.9 hPa NNE 14.5 km/h 25.7 km/h 63 % 0 mm 680 W/m2
16:49 17.9 °C 10.8 °C 1019.9 hPa North 14.5 km/h 25.7 km/h 63 % 0 mm 680 W/m2
16:54 17.9 °C 10.8 °C 1020.2 hPa North 12.9 km/h 22.5 km/h 63 % 0 mm 107 W/m2
16:59 17.7 °C 10.8 °C 1020.2 hPa NNE 12.9 km/h 25.7 km/h 64 % 0 mm 146 W/m2
17:04 17.5 °C 10.8 °C 1020.2 hPa NNE 11.3 km/h 25.7 km/h 65 % 0 mm 163 W/m2
17:09 17.3 °C 10.7 °C 1020.2 hPa NNE 11.3 km/h 24.1 km/h 65 % 0 mm 160 W/m2
17:14 17.2 °C 10.8 °C 1020.2 hPa NNE 11.3 km/h 24.1 km/h 66 % 0 mm 218 W/m2
17:19 17.2 °C 10.8 °C 1020.2 hPa North 11.3 km/h 20.9 km/h 66 % 0 mm 225 W/m2
17:24 17.3 °C 10.7 °C 1020.2 hPa North 9.7 km/h 20.9 km/h 65 % 0 mm 250 W/m2
17:29 17.5 °C 10.4 °C 1020.2 hPa NNE 12.9 km/h 25.7 km/h 63 % 0 mm 499 W/m2
17:34 17.8 °C 10.4 °C 1020.2 hPa NNE 14.5 km/h 25.7 km/h 62 % 0 mm 492 W/m2
17:36 17.8 °C 10.2 °C 1020.2 hPa NNE 14.5 km/h 25.7 km/h 61 % 0 mm 415 W/m2
17:41 17.7 °C 9.8 °C 1020.5 hPa NNE 14.5 km/h 24.1 km/h 60 % 0 mm 120 W/m2
17:46 17.4 °C 9.8 °C 1020.5 hPa NNE 14.5 km/h 24.1 km/h 61 % 0 mm 392 W/m2
17:51 17.5 °C 9.9 °C 1020.5 hPa NNE 11.3 km/h 24.1 km/h 61 % 0 mm 376 W/m2
17:56 17.8 °C 9.9 °C 1020.5 hPa North 11.3 km/h 24.1 km/h 60 % 0 mm 362 W/m2
18:01 17.9 °C 9.8 °C 1020.5 hPa NNE 14.5 km/h 32.2 km/h 59 % 0 mm 352 W/m2
18:06 17.9 °C 10 °C 1020.5 hPa NNE 14.5 km/h 32.2 km/h 60 % 0 mm 338 W/m2
18:11 18 °C 9.9 °C 1020.5 hPa NNE 12.9 km/h 30.6 km/h 59 % 0 mm 373 W/m2
18:16 18 °C 9.9 °C 1020.9 hPa NNE 12.9 km/h 30.6 km/h 59 % 0 mm 320 W/m2
18:21 18 °C 9.9 °C 1020.9 hPa NNE 12.9 km/h 29 km/h 59 % 0 mm 301 W/m2
18:26 17.8 °C 9.9 °C 1020.9 hPa NE 12.9 km/h 29 km/h 60 % 0 mm 272 W/m2
18:31 17.5 °C 9.7 °C 1020.9 hPa NE 14.5 km/h 29 km/h 60 % 0 mm 271 W/m2
18:36 17.4 °C 9.8 °C 1020.9 hPa NNE 12.9 km/h 24.1 km/h 61 % 0 mm 54 W/m2
18:37 17.3 °C 9.9 °C 1020.9 hPa NNE 12.9 km/h 24.1 km/h 62 % 0 mm 54 W/m2
18:42 17.2 °C 9.8 °C 1020.9 hPa NNE 12.9 km/h 22.5 km/h 62 % 0 mm 244 W/m2
18:47 17 °C 9.7 °C 1020.9 hPa NNE 12.9 km/h 29 km/h 62 % 0 mm 218 W/m2
18:52 16.9 °C 9.6 °C 1021.2 hPa NNE 11.3 km/h 29 km/h 62 % 0 mm 209 W/m2
18:57 16.7 °C 9.4 °C 1021.2 hPa NNE 11.3 km/h 24.1 km/h 62 % 0 mm 42 W/m2
19:02 16.6 °C 9.5 °C 1021.2 hPa NNE 12.9 km/h 24.1 km/h 63 % 0 mm 178 W/m2
19:07 16.7 °C 9.8 °C 1021.2 hPa NNE 11.3 km/h 22.5 km/h 64 % 0 mm 163 W/m2
19:12 16.7 °C 9.6 °C 1021.2 hPa NNE 11.3 km/h 25.7 km/h 63 % 0 mm 149 W/m2
19:17 16.5 °C 9.7 °C 1021.2 hPa NNE 11.3 km/h 25.7 km/h 64 % 0 mm 139 W/m2
19:22 16.4 °C 9.6 °C 1021.6 hPa NNE 9.7 km/h 22.5 km/h 64 % 0 mm 35 W/m2
19:27 16.3 °C 9.5 °C 1021.6 hPa NNE 9.7 km/h 17.7 km/h 64 % 0 mm 113 W/m2
19:32 16.2 °C 9.6 °C 1021.6 hPa NNE 8 km/h 16.1 km/h 65 % 0 mm 104 W/m2
19:37 16.2 °C 9.4 °C 1021.6 hPa NNE 9.7 km/h 22.5 km/h 64 % 0 mm 91 W/m2
19:42 16.1 °C 9.3 °C 1021.6 hPa NNE 12.9 km/h 25.7 km/h 64 % 0 mm 79 W/m2
19:47 16.1 °C 9.3 °C 1021.6 hPa NNE 12.9 km/h 25.7 km/h 64 % 0 mm 69 W/m2
19:52 15.9 °C 9.3 °C 1021.6 hPa NNE 11.3 km/h 30.6 km/h 65 % 0 mm 46 W/m2
19:57 15.7 °C 9.1 °C 1021.9 hPa NNE 11.3 km/h 30.6 km/h 65 % 0 mm 46 W/m2
20:02 15.6 °C 9.3 °C 1021.9 hPa NNE 9.7 km/h 29 km/h 66 % 0 mm 21 W/m2
20:07 15.4 °C 9.1 °C 1021.9 hPa NNE 8 km/h 22.5 km/h 66 % 0 mm 19 W/m2
20:12 15.3 °C 9.2 °C 1021.9 hPa NE 9.7 km/h 22.5 km/h 67 % 0 mm 18 W/m2
20:17 15.2 °C 9.1 °C 1022.2 hPa NNE 11.3 km/h 19.3 km/h 67 % 0 mm 14 W/m2
20:22 15.1 °C 9 °C 1022.2 hPa NNE 11.3 km/h 19.3 km/h 67 % 0 mm 14 W/m2
20:27 14.9 °C 9.1 °C 1022.2 hPa NE 9.7 km/h 16.1 km/h 68 % 0 mm 12 W/m2
20:32 14.8 °C 8.9 °C 1022.2 hPa NNE 8 km/h 16.1 km/h 68 % 0 mm 11 W/m2
20:37 14.7 °C 9.1 °C 1022.6 hPa NNE 8 km/h 17.7 km/h 69 % 0 mm 9 W/m2
20:42 14.7 °C 9.1 °C 1022.2 hPa NNE 8 km/h 17.7 km/h 69 % 0 mm 5 W/m2
20:47 14.6 °C 9 °C 1022.6 hPa NNE 4.8 km/h 16.1 km/h 69 % 0 mm 5 W/m2
20:52 14.5 °C 9.1 °C 1022.6 hPa NNE 4.8 km/h 11.3 km/h 70 % 0 mm 0 W/m2
20:57 14.4 °C 9 °C 1022.6 hPa NNE 4.8 km/h 11.3 km/h 70 % 0 mm 0 W/m2
21:02 14.3 °C 9.1 °C 1022.6 hPa North 4.8 km/h 11.3 km/h 71 % 0 mm 0 W/m2
21:07 14.1 °C 9.1 °C 1022.6 hPa North 3.2 km/h 11.3 km/h 72 % 0 mm 0 W/m2
21:12 14 °C 9.1 °C 1022.9 hPa North 3.2 km/h 9.7 km/h 72 % 0 mm 0 W/m2
21:17 13.9 °C 9.1 °C 1022.9 hPa North 1.6 km/h 9.7 km/h 73 % 0 mm 0 W/m2
21:22 13.8 °C 9.1 °C 1022.9 hPa North 3.2 km/h 11.3 km/h 73 % 0 mm 0 W/m2
21:27 13.7 °C 9.2 °C 1023.2 hPa North 4.8 km/h 11.3 km/h 74 % 0 mm 0 W/m2
21:32 13.6 °C 9.1 °C 1023.2 hPa North 4.8 km/h 12.9 km/h 74 % 0 mm 0 W/m2
21:38 13.6 °C 9.2 °C 1023.2 hPa North 3.2 km/h 12.9 km/h 75 % 0 mm 0 W/m2
21:42 13.5 °C 9.2 °C 1023.2 hPa NNE 1.6 km/h 8 km/h 75 % 0 mm 0 W/m2
21:47 13.4 °C 9.3 °C 1023.2 hPa Calm   3.2 km/h 76 % 0 mm 0 W/m2
21:52 13.3 °C 9.2 °C 1023.2 hPa Calm   3.2 km/h 76 % 0 mm 0 W/m2
21:57 13.1 °C 9.2 °C 1023.2 hPa NNE 1.6 km/h 6.4 km/h 77 % 0 mm 0 W/m2
22:03 13 °C 9.3 °C 1023.6 hPa NNE 1.6 km/h 6.4 km/h 78 % 0 mm 0 W/m2
22:08 12.9 °C 9.2 °C 1023.6 hPa Calm   6.4 km/h 78 % 0 mm 0 W/m2
22:13 12.8 °C 9.2 °C 1023.6 hPa NNE 1.6 km/h 8 km/h 79 % 0 mm 0 W/m2
22:18 12.7 °C 9.2 °C 1023.6 hPa NNE 1.6 km/h 8 km/h 79 % 0 mm 0 W/m2
22:23 12.6 °C 9.1 °C 1023.6 hPa NNE 1.6 km/h 6.4 km/h 79 % 0 mm 0 W/m2
22:28 12.5 °C 9.2 °C 1023.6 hPa Calm   6.4 km/h 80 % 0 mm 0 W/m2
22:33 12.3 °C 8.9 °C 1023.6 hPa Calm     80 % 0 mm 0 W/m2
22:38 12.1 °C 8.9 °C 1023.6 hPa Calm     81 % 0 mm 0 W/m2
22:43 11.9 °C 8.9 °C 1023.6 hPa Calm     82 % 0 mm 0 W/m2
22:48 11.7 °C 8.7 °C 1023.6 hPa Calm     82 % 0 mm 0 W/m2
22:53 11.6 °C 8.8 °C 1023.6 hPa Calm     83 % 0 mm 0 W/m2
22:58 11.3 °C 8.7 °C 1023.9 hPa Calm     84 % 0 mm 0 W/m2
23:03 11.1 °C 8.5 °C 1023.9 hPa Calm     84 % 0 mm 0 W/m2
23:04 11.1 °C 8.5 °C 1023.9 hPa Calm     84 % 0 mm 0 W/m2
23:09 10.9 °C 8.5 °C 1023.9 hPa Calm     85 % 0 mm 0 W/m2
23:14 10.7 °C 8.4 °C 1023.9 hPa Calm     86 % 0 mm 0 W/m2
23:19 10.6 °C 8.3 °C 1023.9 hPa Calm     86 % 0 mm 0 W/m2
23:24 10.4 °C 8.2 °C 1023.9 hPa Calm     86 % 0 mm 0 W/m2
23:29 10.3 °C 8.2 °C 1023.9 hPa Calm     87 % 0 mm 0 W/m2
23:34 10.2 °C 8.3 °C 1023.9 hPa Calm   1.6 km/h 88 % 0 mm 0 W/m2
23:39 10 °C 8.1 °C 1023.9 hPa Calm   1.6 km/h 88 % 0 mm 0 W/m2
23:44 9.9 °C 8 °C 1023.9 hPa Calm   4.8 km/h 88 % 0 mm 0 W/m2
23:49 9.7 °C 8 °C 1023.9 hPa Calm   4.8 km/h 89 % 0 mm 0 W/m2
23:54 9.6 °C 7.9 °C 1023.9 hPa Calm   3.2 km/h 89 % 0 mm 0 W/m2
23:59 9.6 °C 8.1 °C 1023.9 hPa Calm   3.2 km/h 90 % 0 mm 0 W/m2
Delerius-Weather
Compliments of Weather Underground - 2.25 mb

Data updates at regular intervals.